Regional Weather Roundup
Issued by NWS

Home | Current Version | Previous Version | Graphics & Text | Print | Product List | Glossary Off
Versions: 1 2 3 4 5 6 7 8 9 10 11 12 13 14 15 16 17 18 19 20 21 22 23 24 25 26 27 28 29 30 31 32 33 34 35 36 37 38 39 40 41 42 43 44 45 46 47 48 49 50

000
ASUS43 KTOP 250708
RWRKS

WEATHER ROUNDUP FOR KANSAS
NATIONAL WEATHER SERVICE GOODLAND KS
200 AM CDT WED APR 25 2018

NOTE:  "FAIR" INDICATES FEW OR NO CLOUDS BELOW 12,000 FEET WITH NO
SIGNIFICANT WEATHER AND/OR OBSTRUCTIONS TO VISIBILITY.

KSZ001>006-013>018-027>032-041>047-250800-
NORTHWEST KANSAS

CITY           SKY/WX    TMP DP  RH WIND       PRES   REMARKS
GOODLAND       PTCLDY    32  30  92 NW15      30.36F WCI  22
HAYS           CLOUDY    42  38  85 N20       30.31S
HILL CITY      CLOUDY    41  37  86 NW15G25   30.35R
RUSSELL        LGT RAIN  42  41  96 NW18G25   30.27F
$$

KSZ061>065-074>080-084>089-250800-
SOUTHWEST KANSAS

CITY           SKY/WX    TMP DP  RH WIND       PRES   REMARKS
DODGE CITY     LGT RAIN  38  36  92 N16G28    30.33R WCI  29
ELKHART        LGT RAIN  39  38  95 N16       30.39F WCI  30
GARDEN CITY    CLOUDY    38  36  92 N15       30.35F WCI  29
GREAT BEND     LGT RAIN  42  40  92 NW15      30.29S
LIBERAL        LGT SNOW  35  34  96 NW12      30.39R FOG     WCI  27
PRATT          LGT RAIN  42  39  91 N22       30.28R
$$

KSZ066>073-081>083-090>101-250800-
SOUTHEAST KANSAS

CITY           SKY/WX    TMP DP  RH WIND       PRES   REMARKS
CHANUTE        CLOUDY    55  48  77 NW12      30.12S
COFFEYVILLE    CLOUDY    56  48  74 N8        30.10F
HUTCHINSON     RAIN      46  45  96 NW16G23   30.25R
MEDICINE LODGE   N/A     44  43  96 NW14      30.26S
NEWTON         LGT RAIN  46  45  96 NW20G25   30.21S
PARSONS        CLOUDY    54  48  80 N7        30.12S
WICHITA INTL   LGT RAIN  48  47  96 NW22      30.21R
WICHITA JABRA  LGT RAIN  47  46  97 N20       30.19F
WICHITA MCCONL LGT RAIN  48  46  93 N22       30.19
WINFIELD       CLOUDY    50  46  86 N18G25    30.17S
$$

KSZ007>012-019>026-033>040-048>060-102>105-250800-
NORTHEAST KANSAS

CITY           SKY/WX    TMP DP  RH WIND       PRES   REMARKS
CONCORDIA      CLOUDY    46  44  93 N10       30.23S
EMPORIA        CLOUDY    51  46  83 NW13      30.16F
LAWRENCE       CLOUDY    56  48  74 W10       30.13R
MANHATTAN      LGT RAIN  50  47  89 VRB3      30.19F
MARYSVILLE     CLOUDY    50  48  93 N8        30.20F
OLATHE IND     CLOUDY    58  47  66 NW10      30.13R
OLATHE EXE     CLOUDY    58  46  64 N10       30.11S
SALINA         RAIN      48  47  96 NW15      30.24R
TOPEKA BILLARD CLOUDY    54  50  86 NW8       30.15S
TOPEKA FORBES  CLOUDY    54  50  86 NW15      30.14S
$$



USA.gov is the U.S. government's official web portal to all federal, state and local government web resources and services.